Weather History for KMBS - August, 2013

Change the Weather History Date:

Saturday, August 31, 2013

  Actual Average Record
Temperature  
Mean Temperature 71 °F 66 °F  
Max Temperature 78 °F 77 °F - ()
Min Temperature 63 °F 56 °F - ()
Degree Days  
Heating Degree Days 0    
Month to date heating degree days 10  
Since 1 June heating degree days 74  
Since 1 July heating degree days 21  
Cooling Degree Days 6    
Month to date cooling degree days 163  
Year to date cooling degree days 607  
Since 1 June cooling degree days 533  
Growing Degree Days 22 (Base 50)    
Moisture  
Dew Point 64 °F    
Average Humidity 75    
Maximum Humidity 93    
Minimum Humidity 56    
Precipitation  
Precipitation 0.00 in 0.12 in - ()
Month to date precipitation 2.91 3.31  
Year to date precipitation 24.88 20.52  
Snow  
Snow 0.00 in - - ()
Month to date snowfall 0.0  
Since 1 June snowfall 0.0  
Since 1 July snowfall 0.0  
Snow Depth 0.00 in    
Sea Level Pressure  
Sea Level Pressure 29.85 in    
Wind  
Wind Speed 7 mph (NNE)    
Max Wind Speed 17 mph    
Max Gust Speed 20 mph    
Visibility 10 miles    
Events      
T = Trace of Precipitation, MM = Missing Value Source: NWS Daily Summary

Daily Weather History Graph

Daily Weather History Graph

Search for Another Location

Airport or City:

Trip Planner

Search our weather history database for the weather conditions in past years. The results will help you decide how hot, cold, wet, or windy it might be!

Date:

Astronomy

Aug. 31, 2013 Rise Set
Actual Time 6:59 AM EDT 8:12 PM EDT
Civil Twilight 6:29 AM EDT 8:42 PM EDT
Nautical Twilight 5:54 AM EDT 9:17 PM EDT
Astronomical Twilight 5:16 AM EDT 9:55 PM EDT
Moon 2:22 AM EDT (8/31) 5:15 PM EDT (8/31)
Length of Visible Light 14h 12m
Length of Day
13h 13m
Waning Crescent, 21% of the Moon is Illuminated
Aug 31
Waning Crescent
Sep 5
New
Sep 12
First Quarter
Sep 19
Full
Sep 26
Last Quarter

Hourly Weather History & Observations

Time (EDT) Temp. Dew Point Humidity Pressure Visibility Wind Dir Wind Speed Gust Speed Precip Events Conditions
12:53 AM 69.1 °F 66.0 °F 90% 29.80 in 10.0 mi North 5.8 mph - N/A   Partly Cloudy
1:53 AM 69.1 °F 66.0 °F 90% 29.80 in 10.0 mi NNW 5.8 mph - N/A   Mostly Cloudy
2:53 AM 69.1 °F 66.0 °F 90% 29.79 in 10.0 mi North 8.1 mph - N/A   Overcast
3:37 AM 69.8 °F 66.2 °F 88% 29.81 in 10.0 mi Variable 6.9 mph - N/A   Overcast
3:53 AM 69.1 °F 66.0 °F 90% 29.80 in 10.0 mi NNE 11.5 mph - N/A   Overcast
4:53 AM 69.1 °F 66.0 °F 90% 29.81 in 10.0 mi NNE 5.8 mph - N/A   Overcast
5:53 AM 69.1 °F 66.0 °F 90% 29.82 in 10.0 mi North 8.1 mph - N/A   Overcast
6:17 AM 69.8 °F 66.2 °F 88% 29.83 in 10.0 mi North 9.2 mph - N/A   Overcast
6:53 AM 69.1 °F 64.9 °F 87% 29.83 in 10.0 mi North 12.7 mph - N/A   Overcast
7:53 AM 69.1 °F 64.0 °F 84% 29.84 in 10.0 mi North 10.4 mph - N/A   Overcast
8:17 AM 68.0 °F 64.4 °F 88% 29.85 in 10.0 mi NNE 8.1 mph - N/A   Overcast
8:53 AM 69.1 °F 64.0 °F 84% 29.86 in 10.0 mi North 9.2 mph - N/A   Overcast
9:53 AM 70.0 °F 64.0 °F 81% 29.88 in 10.0 mi NNE 9.2 mph - N/A   Overcast
10:11 AM 69.8 °F 64.4 °F 83% 29.89 in 10.0 mi North 10.4 mph - N/A   Overcast
10:24 AM 71.6 °F 64.4 °F 78% 29.89 in 10.0 mi NNE 6.9 mph - N/A   Overcast
10:34 AM 71.6 °F 64.4 °F 78% 29.89 in 10.0 mi NNE 8.1 mph - N/A   Overcast
10:53 AM 72.0 °F 64.0 °F 76% 29.87 in 10.0 mi NE 10.4 mph - N/A   Overcast
11:53 AM 73.0 °F 64.0 °F 73% 29.88 in 10.0 mi NE 8.1 mph - N/A   Overcast
12:17 PM 73.4 °F 64.4 °F 73% 29.88 in 10.0 mi NE 10.4 mph - N/A   Overcast
12:53 PM 75.0 °F 64.9 °F 71% 29.86 in 10.0 mi ENE 9.2 mph - N/A   Overcast
1:07 PM 75.2 °F 64.4 °F 69% 29.87 in 10.0 mi NNE 9.2 mph - N/A   Overcast
1:53 PM 75.0 °F 64.0 °F 69% 29.87 in 10.0 mi ENE 9.2 mph - N/A   Overcast
2:53 PM 77.0 °F 62.1 °F 60% 29.87 in 10.0 mi NE 8.1 mph - N/A   Overcast
3:53 PM 77.0 °F 62.1 °F 60% 29.86 in 10.0 mi NE 5.8 mph - N/A   Overcast
4:53 PM 77.0 °F 61.0 °F 58% 29.86 in 10.0 mi NE 8.1 mph - N/A   Overcast
5:53 PM 77.0 °F 62.1 °F 60% 29.84 in 10.0 mi NE 8.1 mph - N/A   Partly Cloudy
6:53 PM 75.0 °F 63.0 °F 66% 29.83 in 10.0 mi NE 8.1 mph - N/A   Clear
7:53 PM 71.1 °F 63.0 °F 75% 29.83 in 10.0 mi ENE 4.6 mph - N/A   Clear
8:53 PM 68.0 °F 63.0 °F 84% 29.83 in 10.0 mi East 3.5 mph - N/A   Clear
9:53 PM 66.9 °F 63.0 °F 87% 29.86 in 10.0 mi Calm Calm - N/A   Clear
10:53 PM 66.0 °F 62.1 °F 87% 29.86 in 10.0 mi ESE 3.5 mph - N/A   Clear
11:53 PM 63.0 °F 61.0 °F 93% 29.88 in 10.0 mi Calm Calm - N/A   Clear